| time (UTC) | temp C | wind direction | speed KPH | gust KPH | rain 1hr cm | rain 24hr cm | rain mn cm | humidity % | barometer mb |
| 20260507160012 | 16 | 350 | 4.8 | 8.0 | 0.00 | 0.00 | 0.00 | 84 | 1015.4 |
| 20260507155512 | 16 | 258 | 0.0 | 9.7 | 0.00 | 0.00 | 0.00 | 85 | 1015.4 |
| 20260507155011 | 16 | 312 | 4.8 | 9.7 | 0.00 | 0.00 | 0.00 | 85 | 1015.4 |
| 20260507154513 | 16 | 301 | 4.8 | 8.0 | 0.00 | 0.00 | 0.00 | 85 | 1015.4 |
| 20260507154013 | 15 | 260 | 1.6 | 8.0 | 0.00 | 0.00 | 0.00 | 84 | 1015.4 |
| 20260507153512 | 15 | 263 | 3.2 | 8.0 | 0.00 | 0.00 | 0.00 | 86 | 1015.4 |
| 20260507152012 | 15 | 297 | 1.6 | 8.0 | 0.00 | 0.00 | 0.00 | 86 | 1015.4 |
| 20260507151510 | 15 | 284 | 1.6 | 8.0 | 0.00 | 0.00 | 0.00 | 86 | 1015.3 |
| 20260507151236 | 15 | 307 | 3.2 | 8.0 | 0.00 | 0.00 | 0.00 | 86 | 1015.3 |
| 20260507150512 | 15 | 353 | 3.2 | 8.0 | 0.00 | 0.00 | 0.00 | 86 | 1015.3 |
| 20260507145731 | 15 | 285 | 0.0 | 4.8 | 0.00 | 0.00 | 0.00 | 86 | 1015.2 |
| 20260507145010 | 15 | 282 | 0.0 | 9.7 | 0.00 | 0.00 | 0.00 | 87 | 1015.2 |
| 20260507144510 | 15 | 20 | 3.2 | 9.7 | 0.00 | 0.00 | 0.00 | 87 | 1015.2 |
| 20260507144011 | 14 | 319 | 4.8 | 8.0 | 0.00 | 0.00 | 0.00 | 88 | 1015.2 |
| 20260507143733 | 14 | 21 | 1.6 | 8.0 | 0.00 | 0.00 | 0.00 | 88 | 1015.1 |
| 20260507143009 | 14 | 343 | 3.2 | 4.8 | 0.00 | 0.00 | 0.00 | 88 | 1015.1 |
| 20260507142511 | 14 | 28 | 1.6 | 3.2 | 0.00 | 0.00 | 0.00 | 88 | 1015.0 |
| 20260507142010 | 14 | 55 | 0.0 | 0.0 | 0.00 | 0.00 | 0.00 | 89 | 1015.0 |
| 20260507141733 | 13 | 311 | 0.0 | 0.0 | 0.00 | 0.00 | 0.00 | 89 | 1015.1 |
| 20260507141232 | 13 | 270 | 0.0 | 0.0 | 0.00 | 0.00 | 0.00 | 89 | 1015.0 |
| 20260507140511 | 13 | 254 | 0.0 | 0.0 | 0.00 | 0.00 | 0.00 | 90 | 1015.0 |
| 20260507140236 | 13 | 267 | 0.0 | 0.0 | 0.00 | 0.00 | 0.00 | 90 | 1014.9 |
| 20260507135734 | 13 | 187 | 0.0 | 0.0 | 0.00 | 0.00 | 0.00 | 91 | 1014.8 |
| 20260507135008 | 13 | 279 | 0.0 | 0.0 | 0.00 | 0.00 | 0.00 | 90 | 1014.8 |
| 20260507134729 | 13 | 254 | 0.0 | 0.0 | 0.00 | 0.00 | 0.00 | 91 | 1014.8 |
| 20260507134009 | 13 | 308 | 0.0 | 1.6 | 0.00 | 0.00 | 0.00 | 91 | 1014.8 |
| 20260507133509 | 13 | 277 | 0.0 | 3.2 | 0.00 | 0.00 | 0.00 | 91 | 1014.8 |
| 20260507133237 | 13 | 296 | 0.0 | 4.8 | 0.00 | 0.00 | 0.00 | 92 | 1014.8 |
| 20260507132508 | 13 | 57 | 3.2 | 4.8 | 0.00 | 0.00 | 0.00 | 91 | 1014.8 |
| 20260507132009 | 13 | 281 | 0.0 | 3.2 | 0.00 | 0.00 | 0.00 | 91 | 1014.7 |
| 20260507131509 | 13 | 265 | 0.0 | 8.0 | 0.00 | 0.00 | 0.00 | 92 | 1014.8 |
| 20260507131008 | 13 | 307 | 1.6 | 8.0 | 0.00 | 0.00 | 0.00 | 92 | 1014.8 |
| 20260507130508 | 13 | 272 | 0.0 | 3.2 | 0.00 | 0.00 | 0.00 | 92 | 1014.8 |
| 20260507130008 | 13 | 314 | 0.0 | 3.2 | 0.00 | 0.00 | 0.00 | 92 | 1014.7 |
| 20260507125509 | 13 | 285 | 0.0 | 3.2 | 0.00 | 0.00 | 0.00 | 92 | 1014.7 |
| 20260507125007 | 13 | 278 | 0.0 | 0.0 | 0.00 | 0.00 | 0.00 | 92 | 1014.6 |
| 20260507124507 | 13 | 222 | 0.0 | 1.6 | 0.00 | 0.00 | 0.00 | 92 | 1014.6 |
| 20260507124231 | 13 | 343 | 0.0 | 1.6 | 0.00 | 0.00 | 0.00 | 92 | 1014.5 |
| 20260507123508 | 13 | 261 | 0.0 | 1.6 | 0.00 | 0.00 | 0.00 | 92 | 1014.5 |
| 20260507123229 | 13 | 296 | 0.0 | 0.0 | 0.00 | 0.00 | 0.00 | 93 | 1014.4 |
| 20260507122508 | 13 | 264 | 0.0 | 0.0 | 0.00 | 0.00 | 0.00 | 93 | 1014.4 |
| 20260507122225 | 13 | 267 | 0.0 | 0.0 | 0.00 | 0.00 | 0.00 | 92 | 1014.4 |
| 20260507121510 | 13 | 262 | 0.0 | 3.2 | 0.00 | 0.00 | 0.00 | 91 | 1014.5 |
| 20260507121229 | 13 | 250 | 0.0 | 4.8 | 0.00 | 0.00 | 0.00 | 91 | 1014.5 |
| 20260507120506 | 13 | 307 | 1.6 | 4.8 | 0.00 | 0.00 | 0.00 | 91 | 1014.5 |
| 20260507120007 | 13 | 14 | 1.6 | 4.8 | 0.00 | 0.00 | 0.00 | 92 | 1014.4 |
| 20260507115507 | 13 | 355 | 3.2 | 3.2 | 0.00 | 0.00 | 0.00 | 92 | 1014.4 |
| 20260507115223 | 13 | 261 | 0.0 | 4.8 | 0.00 | 0.00 | 0.00 | 92 | 1014.4 |
| 20260507114507 | 13 | 192 | 0.0 | 4.8 | 0.00 | 0.00 | 0.00 | 93 | 1014.4 |
| 20260507114009 | 13 | 341 | 4.8 | 4.8 | 0.00 | 0.00 | 0.00 | 91 | 1014.4 |
| 20260507113732 | 13 | 290 | 0.0 | 0.0 | 0.00 | 0.00 | 0.00 | 91 | 1014.3 |
| 20260507113008 | 13 | 299 | 0.0 | 4.8 | 0.00 | 0.00 | 0.00 | 92 | 1014.2 |
| 20260507112505 | 13 | 323 | 0.0 | 4.8 | 0.00 | 0.00 | 0.00 | 91 | 1014.4 |
| 20260507112006 | 13 | 269 | 0.0 | 0.0 | 0.00 | 0.00 | 0.00 | 91 | 1014.5 |
| 20260507111509 | 13 | 273 | 0.0 | 0.0 | 0.00 | 0.00 | 0.00 | 91 | 1014.5 |
| 20260507111005 | 13 | 303 | 0.0 | 3.2 | 0.00 | 0.00 | 0.00 | 91 | 1014.5 |
| 20260507110505 | 13 | 354 | 1.6 | 3.2 | 0.00 | 0.00 | 0.00 | 91 | 1014.5 |
| 20260507110007 | 14 | 336 | 0.0 | 1.6 | 0.00 | 0.00 | 0.00 | 91 | 1014.5 |
| 20260507105733 | 14 | 347 | 0.0 | 0.0 | 0.00 | 0.00 | 0.00 | 90 | 1014.5 |
| 20260507105004 | 14 | 291 | 0.0 | 0.0 | 0.00 | 0.00 | 0.00 | 90 | 1014.6 |
| 20260507104507 | 14 | 306 | 0.0 | 0.0 | 0.00 | 0.00 | 0.00 | 90 | 1014.6 |
| 20260507104006 | 13 | 286 | 0.0 | 0.0 | 0.00 | 0.00 | 0.00 | 90 | 1014.7 |
| 20260507103506 | 13 | 291 | 0.0 | 0.0 | 0.00 | 0.00 | 0.00 | 90 | 1014.7 |
| 20260507103007 | 13 | 305 | 0.0 | 0.0 | 0.00 | 0.00 | 0.00 | 90 | 1014.7 |
| 20260507102732 | 13 | 339 | 0.0 | 3.2 | 0.00 | 0.00 | 0.00 | 90 | 1014.8 |
| 20260507102006 | 13 | 319 | 0.0 | 8.0 | 0.00 | 0.00 | 0.00 | 90 | 1014.8 |
| 20260507101508 | 13 | 342 | 3.2 | 8.0 | 0.00 | 0.00 | 0.00 | 91 | 1014.9 |
| 20260507101005 | 13 | 17 | 0.0 | 1.6 | 0.00 | 0.00 | 0.00 | 91 | 1015.0 |
| 20260507100503 | 13 | 333 | 0.0 | 0.0 | 0.00 | 0.00 | 0.00 | 91 | 1015.0 |
| 20260507100117 | 14 | 329 | 0.0 | 3.2 | 0.00 | 0.00 | 0.00 | 90 | 1014.9 |
| 20260507095617 | 14 | 271 | 0.0 | 8.0 | 0.00 | 0.00 | 0.00 | 90 | 1014.9 |
| 20260507095120 | 14 | 323 | 1.6 | 8.0 | 0.00 | 0.00 | 0.00 | 90 | 1014.9 |
| 20260507094841 | 14 | 310 | 1.6 | 4.8 | 0.00 | 0.00 | 0.00 | 90 | 1014.9 |
| 20260507094116 | 14 | 333 | 1.6 | 4.8 | 0.00 | 0.00 | 0.00 | 90 | 1014.9 |
| 20260507093617 | 14 | 281 | 0.0 | 3.2 | 0.00 | 0.00 | 0.00 | 90 | 1015.0 |
| 20260507093118 | 14 | 309 | 1.6 | 3.2 | 0.00 | 0.00 | 0.00 | 90 | 1015.0 |
| 20260507092617 | 14 | 327 | 0.0 | 4.8 | 0.00 | 0.00 | 0.00 | 89 | 1015.0 |
| 20260507092118 | 14 | 238 | 0.0 | 4.8 | 0.00 | 0.00 | 0.00 | 90 | 1015.2 |
| 20260507091616 | 14 | 351 | 3.2 | 4.8 | 0.00 | 0.00 | 0.00 | 90 | 1015.2 |
| 20260507091116 | 15 | 305 | 1.6 | 4.8 | 0.00 | 0.00 | 0.00 | 90 | 1015.2 |
| 20260507090618 | 15 | 329 | 1.6 | 4.8 | 0.00 | 0.00 | 0.00 | 90 | 1015.1 |
| 20260507085617 | 15 | 256 | 0.0 | 0.0 | 0.00 | 0.00 | 0.00 | 90 | 1015.3 |
| 20260507085116 | 15 | 271 | 0.0 | 0.0 | 0.00 | 0.00 | 0.00 | 89 | 1015.4 |
| 20260507084836 | 15 | 296 | 0.0 | 0.0 | 0.00 | 0.00 | 0.00 | 89 | 1015.5 |
| 20260507084116 | 15 | 294 | 0.0 | 0.0 | 0.00 | 0.00 | 0.00 | 89 | 1015.5 |
| 20260507083835 | 15 | 309 | 0.0 | 0.0 | 0.00 | 0.00 | 0.00 | 89 | 1015.6 |
| 20260507083117 | 15 | 300 | 0.0 | 0.0 | 0.00 | 0.00 | 0.00 | 89 | 1015.6 |
| 20260507082616 | 15 | 258 | 0.0 | 0.0 | 0.00 | 0.00 | 0.00 | 89 | 1015.7 |
| 20260507082116 | 15 | 293 | 0.0 | 0.0 | 0.00 | 0.00 | 0.00 | 89 | 1015.7 |
| 20260507081615 | 15 | 310 | 0.0 | 3.2 | 0.00 | 0.00 | 0.00 | 89 | 1015.8 |
| 20260507081340 | 15 | 317 | 0.0 | 3.2 | 0.00 | 0.00 | 0.00 | 89 | 1015.7 |
| 20260507080618 | 15 | 306 | 3.2 | 3.2 | 0.00 | 0.00 | 0.00 | 89 | 1015.7 |
| 20260507080116 | 15 | 291 | 1.6 | 3.2 | 0.00 | 0.00 | 0.00 | 88 | 1015.9 |
| 20260507075615 | 15 | 282 | 1.6 | 3.2 | 0.00 | 0.00 | 0.00 | 88 | 1015.8 |
| 20260507075115 | 15 | 280 | 1.6 | 4.8 | 0.00 | 0.00 | 0.00 | 88 | 1015.9 |
| 20260507074838 | 15 | 296 | 3.2 | 4.8 | 0.00 | 0.00 | 0.00 | 88 | 1015.8 |
| 20260507074116 | 15 | 320 | 4.8 | 4.8 | 0.00 | 0.00 | 0.00 | 88 | 1015.9 |
| 20260507073615 | 15 | 301 | 3.2 | 4.8 | 0.00 | 0.00 | 0.00 | 88 | 1015.9 |
| 20260507073114 | 15 | 301 | 4.8 | 4.8 | 0.00 | 0.00 | 0.00 | 88 | 1015.7 |
| 20260507072615 | 15 | 287 | 4.8 | 4.8 | 0.00 | 0.00 | 0.00 | 88 | 1015.8 |
| 20260507072115 | 15 | 311 | 0.0 | 4.8 | 0.00 | 0.00 | 0.00 | 88 | 1015.9 |
| 20260507071615 | 15 | 292 | 3.2 | 4.8 | 0.00 | 0.00 | 0.00 | 88 | 1015.8 |
| 20260507071114 | 15 | 322 | 4.8 | 4.8 | 0.00 | 0.00 | 0.00 | 88 | 1015.9 |
| 20260507070615 | 15 | 302 | 3.2 | 4.8 | 0.00 | 0.00 | 0.00 | 88 | 1015.9 |
| 20260507070115 | 15 | 325 | 0.0 | 8.0 | 0.00 | 0.00 | 0.00 | 88 | 1015.9 |
| 20260507065613 | 15 | 279 | 3.2 | 8.0 | 0.00 | 0.00 | 0.00 | 88 | 1016.0 |
| 20260507065113 | 15 | 328 | 6.4 | 8.0 | 0.00 | 0.00 | 0.00 | 88 | 1016.0 |
| 20260507064833 | 15 | 321 | 4.8 | 8.0 | 0.00 | 0.00 | 0.00 | 88 | 1016.0 |
| 20260507064114 | 15 | 270 | 3.2 | 4.8 | 0.00 | 0.00 | 0.00 | 88 | 1016.1 |
| 20260507063612 | 15 | 330 | 4.8 | 8.0 | 0.00 | 0.00 | 0.00 | 88 | 1016.1 |
| 20260507063114 | 15 | 352 | 1.6 | 9.7 | 0.00 | 0.00 | 0.00 | 88 | 1016.1 |
| 20260507062614 | 15 | 310 | 4.8 | 9.7 | 0.00 | 0.00 | 0.00 | 88 | 1016.1 |
| 20260507062114 | 15 | 343 | 6.4 | 9.7 | 0.00 | 0.00 | 0.00 | 88 | 1016.1 |
| 20260507061612 | 15 | 282 | 3.2 | 4.8 | 0.00 | 0.00 | 0.00 | 88 | 1016.1 |
| 20260507061113 | 15 | 275 | 3.2 | 4.8 | 0.00 | 0.00 | 0.00 | 88 | 1016.2 |
| 20260507060613 | 15 | 273 | 0.0 | 4.8 | 0.00 | 0.00 | 0.00 | 88 | 1016.2 |
| 20260507060114 | 15 | 264 | 0.0 | 4.8 | 0.00 | 0.00 | 0.00 | 88 | 1016.1 |
| 20260507055613 | 15 | 257 | 1.6 | 4.8 | 0.00 | 0.00 | 0.00 | 88 | 1016.0 |
| 20260507055113 | 15 | 273 | 3.2 | 8.0 | 0.00 | 0.00 | 0.00 | 88 | 1016.1 |
| 20260507054612 | 15 | 281 | 1.6 | 8.0 | 0.00 | 0.00 | 0.00 | 88 | 1016.1 |
| 20260507054112 | 15 | 311 | 6.4 | 8.0 | 0.00 | 0.00 | 0.00 | 88 | 1016.1 |
| 20260507053612 | 15 | 272 | 1.6 | 4.8 | 0.00 | 0.00 | 0.00 | 88 | 1016.0 |
| 20260507053334 | 15 | 273 | 1.6 | 4.8 | 0.00 | 0.00 | 0.00 | 88 | 1016.1 |
| 20260507052613 | 15 | 259 | 1.6 | 3.2 | 0.00 | 0.00 | 0.00 | 88 | 1016.1 |
| 20260507052113 | 15 | 269 | 0.0 | 4.8 | 0.00 | 0.00 | 0.00 | 88 | 1016.1 |
| 20260507051614 | 15 | 290 | 3.2 | 4.8 | 0.00 | 0.00 | 0.00 | 88 | 1016.0 |
| 20260507051111 | 15 | 279 | 1.6 | 4.8 | 0.00 | 0.00 | 0.00 | 87 | 1016.1 |
| 20260507050610 | 16 | 265 | 4.8 | 9.7 | 0.00 | 0.00 | 0.00 | 87 | 1016.0 |
| 20260507050113 | 16 | 317 | 4.8 | 9.7 | 0.00 | 0.00 | 0.00 | 87 | 1016.0 |
| 20260507045613 | 16 | 300 | 8.0 | 8.0 | 0.00 | 0.00 | 0.00 | 87 | 1015.9 |
| 20260507045111 | 16 | 291 | 4.8 | 9.7 | 0.00 | 0.00 | 0.00 | 87 | 1016.0 |
| 20260507044610 | 16 | 292 | 6.4 | 9.7 | 0.00 | 0.00 | 0.00 | 87 | 1016.0 |
| 20260507044115 | 16 | 318 | 6.4 | 8.0 | 0.00 | 0.00 | 0.00 | 87 | 1016.0 |
| 20260507043613 | 16 | 333 | 6.4 | 9.7 | 0.00 | 0.00 | 0.00 | 86 | 1016.0 |
| 20260507043112 | 16 | 325 | 6.4 | 11.3 | 0.00 | 0.00 | 0.00 | 86 | 1015.9 |
| 20260507042610 | 16 | 304 | 6.4 | 11.3 | 0.00 | 0.00 | 0.00 | 86 | 1016.0 |
| 20260507042331 | 16 | 317 | 8.0 | 11.3 | 0.00 | 0.00 | 0.00 | 85 | 1015.9 |
| 20260507041835 | 16 | 283 | 4.8 | 11.3 | 0.00 | 0.00 | 0.00 | 85 | 1015.9 |
| 20260507041110 | 16 | 311 | 8.0 | 11.3 | 0.00 | 0.00 | 0.00 | 85 | 1015.8 |
| 20260507040610 | 16 | 250 | 6.4 | 11.3 | 0.00 | 0.00 | 0.00 | 84 | 1015.9 |
| 20260507040112 | 16 | 358 | 3.2 | 16.1 | 0.00 | 0.00 | 0.00 | 84 | 1015.8 |
| 20260507035611 | 16 | 340 | 8.0 | 19.3 | 0.00 | 0.00 | 0.00 | 84 | 1015.8 |
| 20260507035110 | 16 | 357 | 12.9 | 22.5 | 0.00 | 0.00 | 0.00 | 84 | 1015.7 |
| 20260507034610 | 16 | 351 | 14.5 | 22.5 | 0.00 | 0.00 | 0.00 | 84 | 1015.6 |
| 20260507034110 | 16 | 283 | 8.0 | 20.9 | 0.00 | 0.00 | 0.00 | 84 | 1015.6 |
| 20260507033611 | 16 | 330 | 12.9 | 19.3 | 0.00 | 0.00 | 0.00 | 84 | 1015.6 |
| 20260507032610 | 16 | 345 | 12.9 | 19.3 | 0.00 | 0.00 | 0.00 | 84 | 1015.5 |
| 20260507032110 | 16 | 351 | 8.0 | 20.9 | 0.00 | 0.00 | 0.00 | 84 | 1015.5 |
| 20260507031611 | 16 | 355 | 12.9 | 20.9 | 0.00 | 0.00 | 0.00 | 83 | 1015.5 |
| 20260507031109 | 16 | 344 | 16.1 | 20.9 | 0.00 | 0.00 | 0.00 | 84 | 1015.3 |
| 20260507030610 | 16 | 345 | 17.7 | 20.9 | 0.00 | 0.00 | 0.00 | 83 | 1015.3 |
| 20260507025611 | 16 | 350 | 14.5 | 19.3 | 0.00 | 0.00 | 0.00 | 82 | 1015.2 |
| 20260507024608 | 16 | 329 | 14.5 | 24.1 | 0.00 | 0.00 | 0.00 | 83 | 1015.2 |
| 20260507024108 | 16 | 5 | 19.3 | 25.7 | 0.00 | 0.00 | 0.00 | 82 | 1015.1 |
| 20260507023609 | 16 | 340 | 17.7 | 25.7 | 0.00 | 0.00 | 0.00 | 81 | 1015.2 |
| 20260507022828 | 17 | 304 | 9.7 | 24.1 | 0.00 | 0.00 | 0.00 | 81 | 1015.0 |
| 20260507022108 | 17 | 337 | 14.5 | 22.5 | 0.00 | 0.00 | 0.00 | 80 | 1015.1 |
| 20260507021610 | 17 | 338 | 14.5 | 24.1 | 0.00 | 0.00 | 0.00 | 81 | 1015.1 |
| 20260507021108 | 17 | 5 | 16.1 | 24.1 | 0.00 | 0.00 | 0.00 | 79 | 1015.0 |
| 20260507020608 | 17 | 355 | 14.5 | 25.7 | 0.00 | 0.00 | 0.00 | 79 | 1015.0 |
| 20260507020108 | 17 | 350 | 16.1 | 25.7 | 0.00 | 0.00 | 0.00 | 78 | 1015.1 |
| 20260507015608 | 17 | 349 | 17.7 | 27.4 | 0.00 | 0.00 | 0.00 | 76 | 1014.9 |
| 20260507015109 | 18 | 353 | 17.7 | 27.4 | 0.00 | 0.00 | 0.00 | 77 | 1014.8 |
| 20260507014606 | 18 | 4 | 20.9 | 25.7 | 0.00 | 0.00 | 0.00 | 75 | 1014.9 |
| 20260507014107 | 18 | 336 | 16.1 | 24.1 | 0.00 | 0.00 | 0.00 | 77 | 1014.8 |
| 20260507013609 | 18 | 354 | 17.7 | 20.9 | 0.00 | 0.00 | 0.00 | 76 | 1014.9 |
| 20260507013110 | 18 | 314 | 12.9 | 14.5 | 0.00 | 0.00 | 0.00 | 77 | 1014.9 |
| 20260507012608 | 18 | 253 | 4.8 | 19.3 | 0.00 | 0.00 | 0.00 | 77 | 1014.9 |
| 20260507012106 | 18 | 270 | 3.2 | 19.3 | 0.00 | 0.00 | 0.00 | 77 | 1014.9 |
| 20260507011608 | 18 | 8 | 6.4 | 14.5 | 0.00 | 0.00 | 0.00 | 76 | 1014.9 |
| 20260507011107 | 18 | 335 | 6.4 | 16.1 | 0.00 | 0.00 | 0.00 | 76 | 1014.9 |
| 20260507010829 | 18 | 251 | 3.2 | 19.3 | 0.00 | 0.00 | 0.00 | 76 | 1014.8 |
| 20260507010106 | 18 | 295 | 9.7 | 19.3 | 0.00 | 0.00 | 0.00 | 75 | 1014.8 |
| 20260507005825 | 18 | 319 | 9.7 | 16.1 | 0.00 | 0.00 | 0.00 | 74 | 1014.8 |
| 20260507005107 | 18 | 327 | 8.0 | 16.1 | 0.00 | 0.00 | 0.00 | 75 | 1014.8 |
| 20260507004606 | 18 | 268 | 9.7 | 16.1 | 0.00 | 0.00 | 0.00 | 74 | 1014.8 |
| 20260507004107 | 18 | 335 | 4.8 | 14.5 | 0.00 | 0.00 | 0.00 | 74 | 1014.8 |
| 20260507003607 | 18 | 278 | 4.8 | 19.3 | 0.00 | 0.00 | 0.00 | 72 | 1014.8 |
| 20260507003106 | 18 | 265 | 8.0 | 19.3 | 0.00 | 0.00 | 0.00 | 73 | 1014.7 |
| 20260507002606 | 18 | 269 | 6.4 | 16.1 | 0.00 | 0.00 | 0.00 | 74 | 1014.7 |
| 20260507002105 | 18 | 314 | 11.3 | 19.3 | 0.00 | 0.00 | 0.00 | 73 | 1014.7 |
| 20260507001826 | 18 | 260 | 6.4 | 19.3 | 0.00 | 0.00 | 0.00 | 73 | 1014.6 |
| 20260507001107 | 18 | 339 | 1.6 | 19.3 | 0.00 | 0.00 | 0.00 | 74 | 1014.7 |
| 20260507000830 | 18 | 249 | 9.7 | 19.3 | 0.00 | 0.00 | 0.00 | 73 | 1014.6 |
| 20260507000105 | 19 | 287 | 9.7 | 16.1 | 0.00 | 0.00 | 0.00 | 74 | 1014.6 |
| 20260506235605 | 18 | 293 | 8.0 | 22.5 | 0.00 | 0.00 | 0.00 | 72 | 1014.6 |
| 20260506235325 | 18 | 271 | 11.3 | 22.5 | 0.00 | 0.00 | 0.00 | 74 | 1014.6 |
| 20260506234605 | 18 | 310 | 8.0 | 19.3 | 0.00 | 0.00 | 0.00 | 73 | 1014.5 |
| 20260506234105 | 18 | 287 | 11.3 | 16.1 | 0.00 | 0.00 | 0.00 | 70 | 1014.6 |
| 20260506233604 | 18 | 249 | 6.4 | 16.1 | 0.00 | 0.00 | 0.00 | 72 | 1014.6 |
| 20260506233108 | 18 | 278 | 6.4 | 25.7 | 0.00 | 0.00 | 0.00 | 73 | 1014.6 |
| 20260506232605 | 18 | 303 | 8.0 | 25.7 | 0.00 | 0.00 | 0.00 | 73 | 1014.6 |
| 20260506232104 | 18 | 31 | 14.5 | 22.5 | 0.00 | 0.00 | 0.00 | 73 | 1014.6 |
| 20260506231604 | 18 | 256 | 1.6 | 19.3 | 0.00 | 0.00 | 0.00 | 72 | 1014.6 |
| 20260506231105 | 18 | 315 | 8.0 | 20.9 | 0.00 | 0.00 | 0.00 | 71 | 1014.7 |
| 20260506230605 | 18 | 248 | 4.8 | 20.9 | 0.00 | 0.00 | 0.00 | 72 | 1014.7 |
| 20260506230104 | 18 | 299 | 16.1 | 24.1 | 0.00 | 0.00 | 0.00 | 74 | 1014.7 |
| 20260506225826 | 18 | 333 | 12.9 | 24.1 | 0.00 | 0.00 | 0.00 | 73 | 1014.7 |
| 20260506225106 | 18 | 257 | 12.9 | 24.1 | 0.00 | 0.00 | 0.00 | 72 | 1014.9 |
| 20260506224605 | 18 | 348 | 8.0 | 24.1 | 0.00 | 0.00 | 0.00 | 73 | 1014.7 |
| 20260506224104 | 18 | 264 | 8.0 | 22.5 | 0.00 | 0.00 | 0.00 | 72 | 1014.9 |
| 20260506223605 | 18 | 278 | 8.0 | 22.5 | 0.00 | 0.00 | 0.00 | 72 | 1014.9 |
| 20260506223105 | 18 | 230 | 9.7 | 20.9 | 0.00 | 0.00 | 0.00 | 72 | 1014.9 |
| 20260506222606 | 18 | 293 | 16.1 | 22.5 | 0.00 | 0.00 | 0.00 | 72 | 1015.0 |
| 20260506222324 | 18 | 297 | 8.0 | 22.5 | 0.00 | 0.00 | 0.00 | 72 | 1015.0 |
| 20260506221602 | 18 | 270 | 9.7 | 20.9 | 0.00 | 0.00 | 0.00 | 71 | 1015.0 |
| 20260506221104 | 18 | 315 | 12.9 | 22.5 | 0.00 | 0.00 | 0.00 | 70 | 1015.1 |
| 20260506220603 | 18 | 293 | 11.3 | 22.5 | 0.00 | 0.00 | 0.00 | 70 | 1015.1 |
| 20260506220320 | 18 | 287 | 6.4 | 20.9 | 0.00 | 0.00 | 0.00 | 70 | 1015.1 |
| 20260506215603 | 18 | 348 | 9.7 | 20.9 | 0.00 | 0.00 | 0.00 | 69 | 1015.2 |
| 20260506215104 | 18 | 281 | 11.3 | 20.9 | 0.00 | 0.00 | 0.00 | 70 | 1015.3 |
| 20260506214605 | 18 | 335 | 16.1 | 20.9 | 0.00 | 0.00 | 0.00 | 68 | 1015.3 |
| 20260506214102 | 18 | 337 | 6.4 | 20.9 | 0.00 | 0.00 | 0.00 | 69 | 1015.4 |
| 20260506213602 | 18 | 14 | 8.0 | 20.9 | 0.00 | 0.00 | 0.00 | 67 | 1015.4 |
| 20260506213104 | 18 | 245 | 11.3 | 20.9 | 0.00 | 0.00 | 0.00 | 67 | 1015.4 |
| 20260506212603 | 18 | 340 | 12.9 | 20.9 | 0.00 | 0.00 | 0.00 | 68 | 1015.5 |
| 20260506212102 | 18 | 281 | 9.7 | 19.3 | 0.00 | 0.00 | 0.00 | 68 | 1015.4 |
| 20260506211826 | 18 | 272 | 4.8 | 19.3 | 0.00 | 0.00 | 0.00 | 69 | 1015.5 |
| 20260506211103 | 18 | 330 | 8.0 | 19.3 | 0.00 | 0.00 | 0.00 | 70 | 1015.5 |
| 20260506210604 | 18 | 264 | 11.3 | 19.3 | 0.00 | 0.00 | 0.00 | 67 | 1015.6 |
| 20260506205602 | 18 | 341 | 4.8 | 19.3 | 0.00 | 0.00 | 0.00 | 69 | 1015.6 |
| 20260506205102 | 18 | 326 | 9.7 | 19.3 | 0.00 | 0.00 | 0.00 | 68 | 1015.5 |
| 20260506204601 | 18 | 244 | 8.0 | 20.9 | 0.00 | 0.00 | 0.00 | 69 | 1015.6 |
| 20260506203601 | 18 | 289 | 6.4 | 22.5 | 0.00 | 0.00 | 0.00 | 68 | 1015.7 |
| 20260506203324 | 18 | 292 | 6.4 | 24.1 | 0.00 | 0.00 | 0.00 | 68 | 1015.7 |
| 20260506202602 | 18 | 324 | 9.7 | 25.7 | 0.00 | 0.00 | 0.00 | 69 | 1015.7 |
| 20260506202102 | 18 | 271 | 14.5 | 25.7 | 0.00 | 0.00 | 0.00 | 69 | 1015.6 |
| 20260506201600 | 18 | 301 | 11.3 | 25.7 | 0.00 | 0.00 | 0.00 | 68 | 1015.7 |
| 20260506201100 | 18 | 34 | 8.0 | 25.7 | 0.00 | 0.00 | 0.00 | 68 | 1015.7 |
| 20260506200602 | 18 | 275 | 12.9 | 25.7 | 0.00 | 0.00 | 0.00 | 67 | 1015.7 |
| 20260506200328 | 18 | 340 | 8.0 | 24.1 | 0.00 | 0.00 | 0.00 | 70 | 1015.8 |
| 20260506195820 | 18 | 279 | 9.7 | 19.3 | 0.00 | 0.00 | 0.00 | 69 | 1015.7 |
| 20260506195059 | 18 | 231 | 11.3 | 20.9 | 0.00 | 0.00 | 0.00 | 69 | 1015.9 |
| 20260506194601 | 18 | 293 | 8.0 | 22.5 | 0.00 | 0.00 | 0.00 | 68 | 1015.8 |
| 20260506194101 | 18 | 346 | 16.1 | 22.5 | 0.00 | 0.00 | 0.00 | 69 | 1015.9 |
| 20260506193559 | 18 | 338 | 4.8 | 20.9 | 0.00 | 0.00 | 0.00 | 67 | 1016.0 |
| 20260506193059 | 18 | 232 | 4.8 | 20.9 | 0.00 | 0.00 | 0.00 | 66 | 1016.1 |
| 20260506192602 | 18 | 299 | 11.3 | 20.9 | 0.00 | 0.00 | 0.00 | 66 | 1016.1 |
| 20260506192319 | 18 | 292 | 6.4 | 19.3 | 0.00 | 0.00 | 0.00 | 66 | 1016.1 |
| 20260506191600 | 18 | 225 | 6.4 | 19.3 | 0.00 | 0.00 | 0.00 | 66 | 1016.2 |
| 20260506190600 | 18 | 241 | 6.4 | 22.5 | 0.00 | 0.00 | 0.00 | 66 | 1016.1 |
| 20260506190100 | 18 | 265 | 8.0 | 22.5 | 0.00 | 0.00 | 0.00 | 67 | 1016.2 |
| 20260506185558 | 19 | 331 | 8.0 | 20.9 | 0.00 | 0.00 | 0.00 | 67 | 1016.2 |
| 20260506185059 | 19 | 271 | 9.7 | 16.1 | 0.00 | 0.00 | 0.00 | 67 | 1016.2 |
| 20260506184600 | 19 | 329 | 14.5 | 16.1 | 0.00 | 0.00 | 0.00 | 66 | 1016.3 |
| 20260506184059 | 19 | 296 | 6.4 | 20.9 | 0.00 | 0.00 | 0.00 | 66 | 1016.3 |
| 20260506183558 | 19 | 289 | 4.8 | 20.9 | 0.00 | 0.00 | 0.00 | 66 | 1016.3 |
| 20260506183058 | 19 | 350 | 6.4 | 16.1 | 0.00 | 0.00 | 0.00 | 65 | 1016.3 |
| 20260506182559 | 19 | 280 | 8.0 | 16.1 | 0.00 | 0.00 | 0.00 | 66 | 1016.4 |
| 20260506181558 | 18 | 321 | 9.7 | 12.9 | 0.00 | 0.00 | 0.00 | 64 | 1016.5 |
| 20260506181057 | 18 | 291 | 4.8 | 14.5 | 0.00 | 0.00 | 0.00 | 65 | 1016.6 |
| 20260506180600 | 18 | 219 | 11.3 | 14.5 | 0.00 | 0.00 | 0.00 | 67 | 1016.6 |
| 20260506180058 | 18 | 325 | 1.6 | 14.5 | 0.00 | 0.00 | 0.00 | 67 | 1016.5 |
| 20260506175558 | 18 | 299 | 1.6 | 12.9 | 0.00 | 0.00 | 0.00 | 65 | 1016.6 |
| 20260506175057 | 18 | 347 | 6.4 | 12.9 | 0.00 | 0.00 | 0.00 | 65 | 1016.7 |
| 20260506174557 | 18 | 285 | 8.0 | 19.3 | 0.00 | 0.00 | 0.00 | 67 | 1016.7 |
| 20260506174059 | 18 | 314 | 4.8 | 19.3 | 0.00 | 0.00 | 0.00 | 67 | 1016.7 |
| 20260506173557 | 18 | 349 | 9.7 | 12.9 | 0.00 | 0.00 | 0.00 | 68 | 1016.7 |
| 20260506173057 | 18 | 246 | 8.0 | 12.9 | 0.00 | 0.00 | 0.00 | 66 | 1016.7 |
| 20260506172558 | 18 | 352 | 6.4 | 14.5 | 0.00 | 0.00 | 0.00 | 68 | 1016.8 |
| 20260506172058 | 18 | 259 | 4.8 | 19.3 | 0.00 | 0.00 | 0.00 | 68 | 1017.0 |
| 20260506171558 | 18 | 313 | 9.7 | 19.3 | 0.00 | 0.00 | 0.00 | 68 | 1016.9 |
| 20260506171058 | 18 | 248 | 6.4 | 12.9 | 0.00 | 0.00 | 0.00 | 66 | 1016.9 |
| 20260506170817 | 18 | 264 | 4.8 | 12.9 | 0.00 | 0.00 | 0.00 | 66 | 1017.0 |
| 20260506170058 | 18 | 267 | 8.0 | 12.9 | 0.00 | 0.00 | 0.00 | 66 | 1016.8 |
| 20260506165557 | 18 | 299 | 4.8 | 12.9 | 0.00 | 0.00 | 0.00 | 66 | 1016.8 |
| 20260506165055 | 18 | 344 | 4.8 | 12.9 | 0.00 | 0.00 | 0.00 | 66 | 1016.8 |
| 20260506164556 | 18 | 259 | 1.6 | 9.7 | 0.00 | 0.00 | 0.00 | 64 | 1016.7 |
| 20260506164318 | 17 | 256 | 3.2 | 9.7 | 0.00 | 0.00 | 0.00 | 66 | 1016.8 |
| 20260506163557 | 17 | 303 | 6.4 | 9.7 | 0.00 | 0.00 | 0.00 | 67 | 1016.8 |
| 20260506163056 | 17 | 247 | 3.2 | 9.7 | 0.00 | 0.00 | 0.00 | 64 | 1016.8 |
| 20260506162555 | 16 | 286 | 4.8 | 4.8 | 0.00 | 0.00 | 0.00 | 68 | 1016.9 |
| 20260506162056 | 16 | 284 | 1.6 | 4.8 | 0.00 | 0.00 | 0.00 | 69 | 1016.8 |
| 20260506161556 | 16 | 11 | 3.2 | 16.1 | 0.00 | 0.00 | 0.00 | 69 | 1016.9 |
| 20260506161055 | 16 | 42 | 4.8 | 16.1 | 0.00 | 0.00 | 0.00 | 70 | 1016.9 |
| 20260506160556 | 16 | 298 | 1.6 | 9.7 | 0.00 | 0.00 | 0.00 | 70 | 1016.8 |
| 20260506160325 | 16 | 42 | 6.4 | 9.7 | 0.00 | 0.00 | 0.00 | 71 | 1016.8 |